Location: Unspecified
(0.0000°N, 0.0000°E)
Time: 07:21:08
(UTC+00:00)

XW-2A - Visible Passes

Search period start: 18 June 2018 00:00
Search period end: 28 June 2018 00:00
Orbit: 434 x 455 km, 97.4° (Epoch: 18 June)

Date Brightness Start Highest point End Pass type
(mag) Time Alt. Az. Time Alt. Az. Time Alt. Az.
18 Jun ? 19:15:02 14° NE 19:15:02 14° NE 19:15:49 10° NE visible
19 Jun ? 20:11:35 17° NW 20:11:35 17° NW 20:12:28 10° NNW visible
20 Jun ? 19:34:37 21° NNE 19:34:37 21° NNE 19:35:59 10° N visible
22 Jun ? 19:54:12 23° NNW 19:54:12 23° NNW 19:55:32 10° NNW visible
23 Jun ? 19:17:13 14° NE 19:17:13 14° NE 19:18:08 10° NNE visible
24 Jun ? 20:13:46 16° NW 20:13:46 16° NW 20:14:38 10° NW visible
25 Jun ? 19:36:46 22° NNE 19:36:46 22° NNE 19:38:12 10° N visible
27 Jun ? 19:56:20 23° NNW 19:56:20 23° NNW 19:57:41 10° NNW visible
